ProjectID,Date,Electric Generation,Electric Utility Import,Facility Electric Load
,YYYY-MM-DD,kW,kW,kW
169,2014-01-08,0.0,,0.0
169,2014-01-09,37.89333333333334,,37.89333333333334
169,2014-01-10,0.13333333333333333,,0.13333333333333333
169,2014-01-11,7.046666666666667,,7.046666666666667
169,2014-01-12,5.906666666666666,,5.906666666666666
169,2014-01-13,22.173333333333332,,22.173333333333332
169,2014-01-14,6.766666666666667,,6.766666666666667
169,2014-01-15,14.780000000000001,,14.780000000000001
169,2014-01-16,32.486666666666665,,32.486666666666665
169,2014-01-17,48.02666666666667,,48.02666666666667
169,2014-01-18,0.52,,0.52
169,2014-01-19,1.5533333333333335,,1.5533333333333335
169,2014-01-20,0.22,,0.22
169,2014-01-21,1.28,,1.28
169,2014-01-22,2.486666666666667,,2.486666666666667
169,2014-01-23,1.3533333333333333,,1.3533333333333333
169,2014-01-24,1.7533333333333332,,1.7533333333333332
169,2014-01-25,5.04,,5.04
169,2014-01-26,6.66,,6.66
169,2014-01-27,30.566666666666666,,30.566666666666666
169,2014-01-28,44.18666666666667,,44.18666666666667
169,2014-01-29,58.05329166666667,,58.05329166666667
169,2014-01-30,71.95341666666667,,71.95341666666667
169,2014-01-31,22.099999999999998,,22.099999999999998
169,2014-02-01,25.34,,25.34
169,2014-02-02,10.979999999999999,,10.979999999999999
169,2014-02-03,9.38,,9.38
169,2014-02-04,43.50666666666667,,43.50666666666667
169,2014-02-05,0.02666666666666667,,0.02666666666666667
169,2014-02-06,0.26,,0.26
169,2014-02-07,0.39999999999999997,,0.39999999999999997
169,2014-02-08,0.44,,0.44
169,2014-02-09,0.26,,0.26
169,2014-02-10,0.03333333333333333,,0.03333333333333333
169,2014-02-11,0.06666666666666667,,0.06666666666666667
169,2014-02-12,0.14666666666666667,,0.14666666666666667
169,2014-02-13,0.013333333333333334,,0.013333333333333334
169,2014-02-14,0.006666666666666667,,0.006666666666666667
169,2014-02-15,0.02,,0.02
169,2014-02-16,0.006666666666666667,,0.006666666666666667
169,2014-02-17,0.013333333333333334,,0.013333333333333334
169,2014-02-18,0.02666666666666667,,0.02666666666666667
169,2014-02-19,0.04666666666666667,,0.04666666666666667
169,2014-02-20,0.2333333333333333,,0.2333333333333333
169,2014-02-21,13.486666666666666,,13.486666666666666
169,2014-02-22,83.48666666666666,,83.48666666666666
169,2014-02-23,61.38670833333333,,61.38670833333333
169,2014-02-24,49.11995833333333,,49.11995833333333
169,2014-02-25,59.77333333333333,,59.77333333333333
169,2014-02-26,76.34670833333332,,76.34670833333332
169,2014-02-27,47.55329166666667,,47.55329166666667
169,2014-02-28,70.293375,,70.293375
169,2014-03-01,0.0,,0.0
169,2014-03-02,11.540041666666667,,11.540041666666667
169,2014-03-03,14.239958333333334,,14.239958333333334
169,2014-03-04,11.479999999999999,,11.479999999999999
169,2014-03-05,11.873375000000001,,11.873375000000001
169,2014-03-06,77.226625,,77.226625
169,2014-03-07,107.02004166666667,,107.02004166666667
169,2014-03-08,59.986625000000004,,59.986625000000004
169,2014-03-09,82.23325,,82.23325
169,2014-03-10,57.440125,,57.440125
169,2014-03-11,111.57991666666668,,111.57991666666668
169,2014-03-12,5.373375,,5.373375
169,2014-03-13,8.566708333333333,,8.566708333333333
169,2014-03-14,51.599958333333326,,51.599958333333326
169,2014-03-15,23.159958333333336,,23.159958333333336
169,2014-03-16,89.95329166666666,,89.95329166666666
169,2014-03-17,134.73341666666667,,134.73341666666667
169,2014-03-18,124.26658333333334,,124.26658333333334
169,2014-03-19,78.06008333333334,,78.06008333333334
169,2014-03-20,32.70670833333333,,32.70670833333333
169,2014-03-21,43.52,,43.52
169,2014-03-22,43.82,,43.82
169,2014-03-23,90.02666666666666,,90.02666666666666
169,2014-03-24,88.699875,,88.699875
169,2014-03-25,103.46679166666667,,103.46679166666667
169,2014-03-26,49.90658333333334,,49.90658333333334
169,2014-03-27,102.23341666666666,,102.23341666666666
169,2014-03-28,46.066541666666666,,46.066541666666666
169,2014-03-29,42.39358333333333,,42.39358333333333
169,2014-03-30,19.43325,,19.43325
169,2014-03-31,117.68654166666666,,117.68654166666666
169,2014-04-01,99.3535,,99.3535
169,2014-04-02,135.33983333333333,,135.33983333333333
169,2014-04-03,115.64683333333333,,115.64683333333333
169,2014-04-04,18.226541666666666,,18.226541666666666
169,2014-04-05,33.18004166666667,,33.18004166666667
169,2014-04-06,148.27341666666666,,148.27341666666666
169,2014-04-07,27.106458333333332,,27.106458333333332
169,2014-04-08,27.220041666666663,,27.220041666666663
169,2014-04-09,100.31349999999999,,100.31349999999999
169,2014-04-10,145.15329166666666,,145.15329166666666
169,2014-04-11,48.519875000000006,,48.519875000000006
169,2014-04-12,135.43325000000002,,135.43325000000002
169,2014-04-13,119.693375,,119.693375
169,2014-04-14,68.97329166666667,,68.97329166666667
169,2014-04-15,12.940125,,12.940125
169,2014-04-16,77.15333333333334,,77.15333333333334
169,2014-04-17,132.64666666666668,,132.64666666666668
169,2014-04-18,117.15333333333332,,117.15333333333332
169,2014-04-19,135.54,,135.54
169,2014-04-20,127.60666666666667,,127.60666666666667
169,2014-04-21,107.54666666666667,,107.54666666666667
169,2014-04-22,26.793333333333333,,26.793333333333333
169,2014-04-23,21.78,,21.78
169,2014-04-24,140.97333333333333,,140.97333333333333
169,2014-04-25,91.74666666666667,,91.74666666666667
169,2014-04-26,56.580000000000005,,56.580000000000005
169,2014-04-27,72.08666666666666,,72.08666666666666
169,2014-04-28,119.33333333333333,,119.33333333333333
169,2014-04-29,33.84666666666667,,33.84666666666667
169,2014-04-30,39.07333333333333,,39.07333333333333
169,2014-05-01,61.96,,61.96
169,2014-05-02,55.04666666666666,,55.04666666666666
169,2014-05-03,43.946666666666665,,43.946666666666665
169,2014-05-04,89.92,,89.92
169,2014-05-05,127.89333333333333,,127.89333333333333
169,2014-05-06,107.18041666666666,,107.18041666666666
169,2014-05-07,111.65958333333333,,111.65958333333333
169,2014-05-08,114.57333333333334,,114.57333333333334
169,2014-05-09,104.81958333333334,,104.81958333333334
169,2014-05-10,97.42708333333333,,97.42708333333333
169,2014-05-11,135.9,,135.9
169,2014-05-12,109.26666666666667,,109.26666666666667
169,2014-05-13,110.59958333333333,,110.59958333333333
169,2014-05-14,118.25416666666666,,118.25416666666666
169,2014-05-15,100.06625000000001,,100.06625000000001
169,2014-05-16,22.506666666666664,,22.506666666666664
169,2014-05-17,95.11333333333333,,95.11333333333333
169,2014-05-18,88.85333333333334,,88.85333333333334
169,2014-05-19,112.65375,,112.65375
169,2014-05-20,105.30666666666667,,105.30666666666667
169,2014-05-21,61.87958333333333,,61.87958333333333
169,2014-05-22,105.65333333333332,,105.65333333333332
169,2014-05-23,21.432916666666667,,21.432916666666667
169,2014-05-24,74.12708333333333,,74.12708333333333
169,2014-05-25,118.21375,,118.21375
169,2014-05-26,124.79916666666666,,124.79916666666666
169,2014-05-27,95.30666666666667,,95.30666666666667
169,2014-05-28,66.82708333333333,,66.82708333333333
169,2014-05-29,50.553333333333335,,50.553333333333335
169,2014-05-30,125.48708333333333,,125.48708333333333
169,2014-05-31,141.11291666666668,,141.11291666666668
169,2014-06-01,137.12,,137.12
169,2014-06-02,122.71333333333332,,122.71333333333332
169,2014-06-03,81.69375000000001,,81.69375000000001
169,2014-06-04,84.38666666666667,,84.38666666666667
169,2014-06-05,72.39291666666666,,72.39291666666666
169,2014-06-06,103.22041666666667,,103.22041666666667
169,2014-06-07,135.39291666666665,,135.39291666666665
169,2014-06-08,106.5,,106.5
169,2014-06-09,18.09958333333333,,18.09958333333333
169,2014-06-10,78.80666666666666,,78.80666666666666
169,2014-06-11,42.507083333333334,,42.507083333333334
169,2014-06-12,43.50666666666667,,43.50666666666667
169,2014-06-13,78.72666666666667,,78.72666666666667
169,2014-06-14,50.680416666666666,,50.680416666666666
169,2014-06-15,122.57291666666667,,122.57291666666667
169,2014-06-16,113.73375,,113.73375
169,2014-06-17,109.95958333333334,,109.95958333333334
169,2014-06-18,84.25333333333333,,84.25333333333333
169,2014-06-19,129.07333333333335,,129.07333333333335
169,2014-06-20,131.10041666666666,,131.10041666666666
169,2014-06-21,128.30666666666667,,128.30666666666667
169,2014-06-22,134.79916666666665,,134.79916666666665
169,2014-06-23,111.0075,,111.0075
169,2014-06-24,75.58624999999999,,75.58624999999999
169,2014-06-25,28.873333333333335,,28.873333333333335
169,2014-06-26,99.40041666666667,,99.40041666666667
169,2014-06-27,120.61958333333332,,120.61958333333332
169,2014-06-28,102.92708333333333,,102.92708333333333
169,2014-06-29,122.91916666666667,,122.91916666666667
169,2014-06-30,103.73333333333333,,103.73333333333333
169,2014-07-01,109.10666666666667,,109.10666666666667
169,2014-07-02,115.26041666666667,,115.26041666666667
169,2014-07-03,66.26041666666667,,66.26041666666667
169,2014-07-04,92.2525,,92.2525
169,2014-07-05,139.61333333333332,,139.61333333333332
169,2014-07-06,136.32041666666666,,136.32041666666666
169,2014-07-07,55.54666666666666,,55.54666666666666
169,2014-07-08,98.76041666666667,,98.76041666666667
169,2014-07-09,86.46625,,86.46625
169,2014-07-10,132.55333333333334,,132.55333333333334
169,2014-07-11,125.67333333333333,,125.67333333333333
169,2014-07-12,100.94666666666666,,100.94666666666666
169,2014-07-13,45.61958333333333,,45.61958333333333
169,2014-07-14,87.7475,,87.7475
169,2014-07-15,58.166666666666664,,58.166666666666664
169,2014-07-16,113.73958333333333,,113.73958333333333
169,2014-07-17,84.10666666666667,,84.10666666666667
169,2014-07-18,125.90625,,125.90625
169,2014-07-19,88.17333333333333,,88.17333333333333
169,2014-07-20,103.50666666666666,,103.50666666666666
169,2014-07-21,91.02083333333333,,91.02083333333333
169,2014-07-22,98.02583333333332,,98.02583333333332
169,2014-07-23,72.03375,,72.03375
169,2014-07-24,126.76708333333333,,126.76708333333333
169,2014-07-25,118.56625000000001,,118.56625000000001
169,2014-07-26,99.40625,,99.40625
169,2014-07-27,100.10041666666666,,100.10041666666666
169,2014-07-28,39.38,,39.38
169,2014-07-29,73.16041666666666,,73.16041666666666
169,2014-07-30,85.91250000000001,,85.91250000000001
169,2014-07-31,78.44666666666667,,78.44666666666667
169,2014-08-01,110.36083333333333,,110.36083333333333
169,2014-08-02,95.00666666666666,,95.00666666666666
169,2014-08-03,52.10666666666666,,52.10666666666666
169,2014-08-04,82.83958333333334,,82.83958333333334
169,2014-08-05,79.83333333333333,,79.83333333333333
169,2014-08-06,98.31416666666667,,98.31416666666667
169,2014-08-07,110.98541666666667,,110.98541666666667
169,2014-08-08,103.17333333333333,,103.17333333333333
169,2014-08-09,105.08708333333334,,105.08708333333334
169,2014-08-10,119.17958333333333,,119.17958333333333
169,2014-08-11,98.68,,98.68
169,2014-08-12,33.97375,,33.97375
169,2014-08-13,79.20041666666667,,79.20041666666667
169,2014-08-14,92.01333333333334,,92.01333333333334
169,2014-08-15,57.00625,,57.00625
169,2014-08-16,72.88041666666668,,72.88041666666668
169,2014-08-17,86.2525,,86.2525
169,2014-08-18,95.92041666666667,,95.92041666666667
169,2014-08-19,92.58625,,92.58625
169,2014-08-20,42.31375,,42.31375
169,2014-08-21,59.6,,59.6
169,2014-08-22,77.18625,,77.18625
169,2014-08-23,24.54041666666667,,24.54041666666667
169,2014-08-24,106.27999999999999,,106.27999999999999
169,2014-08-25,106.76041666666667,,106.76041666666667
169,2014-08-26,115.82666666666667,,115.82666666666667
169,2014-08-27,41.06,,41.06
169,2014-08-28,75.95958333333333,,75.95958333333333
169,2014-08-29,102.28666666666668,,102.28666666666668
169,2014-08-30,104.59375,,104.59375
169,2014-08-31,29.44666666666667,,29.44666666666667
169,2014-09-01,80.77333333333333,,80.77333333333333
169,2014-09-02,70.51291666666667,,70.51291666666667
169,2014-09-03,103.98041666666667,,103.98041666666667
169,2014-09-04,89.65916666666668,,89.65916666666668
169,2014-09-05,98.48041666666667,,98.48041666666667
169,2014-09-06,22.933333333333334,,22.933333333333334
169,2014-09-07,102.25291666666668,,102.25291666666668
169,2014-09-08,106.20041666666667,,106.20041666666667
169,2014-09-09,79.44,,79.44
169,2014-09-10,63.14083333333334,,63.14083333333334
169,2014-09-11,45.4125,,45.4125
169,2014-09-12,40.67958333333333,,40.67958333333333
169,2014-09-13,28.360833333333332,,28.360833333333332
169,2014-09-14,101.16000000000001,,101.16000000000001
169,2014-09-15,99.9925,,99.9925
169,2014-09-16,53.1,,53.1
169,2014-09-17,76.74083333333333,,76.74083333333333
169,2014-09-18,66.97291666666666,,66.97291666666666
169,2014-09-19,106.33333333333333,,106.33333333333333
169,2014-09-20,77.65375,,77.65375
169,2014-09-21,58.08583333333333,,58.08583333333333
169,2014-09-22,39.86708333333333,,39.86708333333333
169,2014-09-23,96.99333333333334,,96.99333333333334
169,2014-09-24,91.77999999999999,,91.77999999999999
169,2014-09-25,62.91291666666667,,62.91291666666667
169,2014-09-26,90.70708333333333,,90.70708333333333
169,2014-09-27,93.52708333333334,,93.52708333333334
169,2014-09-28,89.68624999999999,,89.68624999999999
169,2014-09-29,76.26041666666667,,76.26041666666667
169,2014-09-30,66.63958333333333,,66.63958333333333
169,2014-10-01,43.1,,43.1
169,2014-10-02,66.19291666666668,,66.19291666666668
169,2014-10-03,74.26666666666667,,74.26666666666667
169,2014-10-04,21.300833333333333,,21.300833333333333
169,2014-10-05,39.13291666666667,,39.13291666666667
169,2014-10-06,65.89958333333333,,65.89958333333333
169,2014-10-07,63.50666666666667,,63.50666666666667
169,2014-10-08,41.61333333333334,,41.61333333333334
169,2014-10-09,65.86708333333333,,65.86708333333333
169,2014-10-10,72.01291666666667,,72.01291666666667
169,2014-10-11,54.01333333333333,,54.01333333333333
169,2014-10-12,87.90750000000001,,87.90750000000001
169,2014-10-13,35.833333333333336,,35.833333333333336
169,2014-10-14,46.30583333333333,,46.30583333333333
169,2014-10-15,11.833333333333334,,11.833333333333334
169,2014-10-16,56.16041666666666,,56.16041666666666
169,2014-10-17,39.753750000000004,,39.753750000000004
169,2014-10-18,23.05333333333333,,23.05333333333333
169,2014-10-19,23.547083333333333,,23.547083333333333
169,2014-10-20,31.519166666666667,,31.519166666666667
169,2014-10-21,13.746250000000002,,13.746250000000002
169,2014-10-22,9.914166666666667,,9.914166666666667
169,2014-10-23,11.519583333333335,,11.519583333333335
169,2014-10-24,72.78,,72.78
169,2014-10-25,47.76666666666667,,47.76666666666667
169,2014-10-26,17.393333333333334,,17.393333333333334
169,2014-10-27,55.14041666666666,,55.14041666666666
169,2014-10-28,39.532916666666665,,39.532916666666665
169,2014-10-29,16.53375,,16.53375
169,2014-10-30,17.72,,17.72
169,2014-10-31,31.5,,31.5
169,2014-11-01,13.739583333333334,,13.739583333333334
169,2014-11-02,48.147083333333335,,48.147083333333335
169,2014-11-03,68.17333333333333,,68.17333333333333
169,2014-11-04,39.45291666666667,,39.45291666666667
169,2014-11-05,44.36708333333333,,44.36708333333333
169,2014-11-06,12.280000000000001,,12.280000000000001
169,2014-11-07,16.379166666666666,,16.379166666666666
169,2014-11-08,19.266666666666666,,19.266666666666666
169,2014-11-09,33.26708333333333,,33.26708333333333
169,2014-11-10,43.64041666666666,,43.64041666666666
169,2014-11-11,60.34,,60.34
169,2014-11-12,35.759166666666665,,35.759166666666665
169,2014-11-13,11.900833333333333,,11.900833333333333
169,2014-11-14,2.1733333333333333,,2.1733333333333333
169,2014-11-15,4.047083333333333,,4.047083333333333
169,2014-11-16,4.605416666666667,,4.605416666666667
169,2014-11-17,0.09999999999999999,,0.09999999999999999
169,2014-11-18,6.93375,,6.93375
169,2014-11-19,24.28,,24.28
169,2014-11-20,14.96625,,14.96625
169,2014-11-21,0.6404166666666666,,0.6404166666666666
169,2014-11-22,0.56625,,0.56625
169,2014-11-23,14.68,,14.68
169,2014-11-24,32.64041666666667,,32.64041666666667
169,2014-11-25,34.57958333333333,,34.57958333333333
169,2014-11-26,1.0208333333333333,,1.0208333333333333
169,2014-11-27,0.0062499999999999995,,0.0062499999999999995
169,2014-11-28,0.03291666666666667,,0.03291666666666667
169,2014-11-29,0.04,,0.04
169,2014-11-30,0.2333333333333333,,0.2333333333333333
169,2014-12-01,9.360416666666667,,9.360416666666667
169,2014-12-02,35.37375,,35.37375
169,2014-12-03,6.506666666666667,,6.506666666666667
169,2014-12-04,29.35291666666667,,29.35291666666667
169,2014-12-05,0.0062499999999999995,,0.0062499999999999995
169,2014-12-06,5.12625,,5.12625
169,2014-12-07,49.45416666666667,,49.45416666666667
169,2014-12-08,22.613333333333333,,22.613333333333333
169,2014-12-09,13.453333333333333,,13.453333333333333
169,2014-12-10,0.14583333333333334,,0.14583333333333334
169,2014-12-11,0.0075,,0.0075
169,2014-12-12,0.006666666666666667,,0.006666666666666667
169,2014-12-13,0.006666666666666667,,0.006666666666666667
169,2014-12-14,0.012916666666666667,,0.012916666666666667
169,2014-12-15,0.006666666666666667,,0.006666666666666667
169,2014-12-16,0.5595833333333333,,0.5595833333333333
169,2014-12-17,13.320416666666667,,13.320416666666667
169,2014-12-18,0.29291666666666666,,0.29291666666666666
169,2014-12-19,0.84,,0.84
169,2014-12-20,1.0870833333333334,,1.0870833333333334
169,2014-12-21,1.9337499999999999,,1.9337499999999999
169,2014-12-22,22.17958333333333,,22.17958333333333
169,2014-12-23,14.100416666666668,,14.100416666666668
169,2014-12-24,8.433333333333334,,8.433333333333334
169,2014-12-25,13.846666666666666,,13.846666666666666
169,2014-12-26,49.04,,49.04
169,2014-12-27,37.67333333333333,,37.67333333333333
169,2014-12-28,7.21375,,7.21375
169,2014-12-29,16.479166666666668,,16.479166666666668
169,2014-12-30,5.059583333333333,,5.059583333333333
169,2014-12-31,6.0874999999999995,,6.0874999999999995
169,2015-01-01,15.025833333333333,,15.025833333333333
169,2015-01-02,20.06,,20.06
169,2015-01-03,5.800833333333333,,5.800833333333333
169,2015-01-04,8.18625,,8.18625
169,2015-01-05,30.68625,,30.68625
169,2015-01-06,9.574166666666667,,9.574166666666667
169,2015-01-07,14.0,,14.0
169,2015-01-08,21.613333333333333,,21.613333333333333
169,2015-01-09,17.732916666666664,,17.732916666666664
169,2015-01-10,19.360833333333336,,19.360833333333336
169,2015-01-11,9.8125,,9.8125
169,2015-01-12,0.05333333333333334,,0.05333333333333334
169,2015-01-13,1.3333333333333333,,1.3333333333333333
169,2015-01-14,1.28,,1.28
169,2015-01-15,1.4400000000000002,,1.4400000000000002
169,2015-01-16,0.45291666666666663,,0.45291666666666663
169,2015-01-17,1.3675,,1.3675
169,2015-01-18,0.6795833333333333,,0.6795833333333333
169,2015-01-19,0.38666666666666666,,0.38666666666666666
169,2015-01-20,1.8462500000000002,,1.8462500000000002
169,2015-01-21,2.200416666666667,,2.200416666666667
169,2015-01-22,2.6733333333333333,,2.6733333333333333
169,2015-01-23,3.9595833333333332,,3.9595833333333332
169,2015-01-24,4.2941666666666665,,4.2941666666666665
169,2015-01-25,3.9729166666666664,,3.9729166666666664
169,2015-01-26,0.37375,,0.37375
169,2015-01-27,0.6133333333333334,,0.6133333333333334
169,2015-01-28,0.8929166666666667,,0.8929166666666667
169,2015-01-29,0.16041666666666668,,0.16041666666666668
169,2015-01-30,0.9125,,0.9125
169,2015-01-31,1.7070833333333333,,1.7070833333333333
169,2015-02-01,0.7004166666666666,,0.7004166666666666
169,2015-02-02,0.006666666666666667,,0.006666666666666667
169,2015-02-03,0.09250000000000001,,0.09250000000000001
169,2015-02-04,0.006666666666666667,,0.006666666666666667
169,2015-02-05,0.0075,,0.0075
169,2015-02-06,0.006666666666666667,,0.006666666666666667
169,2015-02-07,0.006666666666666667,,0.006666666666666667
169,2015-02-08,0.012916666666666667,,0.012916666666666667
169,2015-02-09,0.0062499999999999995,,0.0062499999999999995
169,2015-02-10,0.006666666666666667,,0.006666666666666667
169,2015-02-11,0.006666666666666667,,0.006666666666666667
169,2015-02-12,0.0075,,0.0075
169,2015-02-13,0.006666666666666667,,0.006666666666666667
169,2015-02-14,0.012916666666666667,,0.012916666666666667
169,2015-02-15,0.006666666666666667,,0.006666666666666667
169,2015-02-16,0.006666666666666667,,0.006666666666666667
169,2015-02-17,0.0062499999999999995,,0.0062499999999999995
169,2015-02-18,0.006666666666666667,,0.006666666666666667
169,2015-02-19,0.007916666666666667,,0.007916666666666667
169,2015-02-20,0.006666666666666667,,0.006666666666666667
169,2015-02-21,0.0062499999999999995,,0.0062499999999999995
169,2015-02-22,0.013333333333333334,,0.013333333333333334
169,2015-02-23,0.0062499999999999995,,0.0062499999999999995
169,2015-02-24,0.006666666666666667,,0.006666666666666667
169,2015-02-25,0.006666666666666667,,0.006666666666666667
169,2015-02-26,0.0075,,0.0075
169,2015-02-27,0.006666666666666667,,0.006666666666666667
169,2015-02-28,0.006666666666666667,,0.006666666666666667
169,2015-03-01,0.012916666666666667,,0.012916666666666667
169,2015-03-02,0.0062499999999999995,,0.0062499999999999995
169,2015-03-03,0.006666666666666667,,0.006666666666666667
169,2015-03-04,0.006666666666666667,,0.006666666666666667
169,2015-03-05,0.0075,,0.0075
169,2015-03-06,0.006666666666666667,,0.006666666666666667
169,2015-03-07,0.006666666666666667,,0.006666666666666667
169,2015-03-08,0.0062499999999999995,,0.0062499999999999995
169,2015-03-09,0.006666666666666667,,0.006666666666666667
169,2015-03-10,0.006666666666666667,,0.006666666666666667
169,2015-03-11,5.90625,,5.90625
169,2015-03-12,15.294166666666667,,15.294166666666667
169,2015-03-13,15.46625,,15.46625
169,2015-03-14,4.78625,,4.78625
169,2015-03-15,0.25375,,0.25375
169,2015-03-16,24.18625,,24.18625
169,2015-03-17,25.91416666666667,,25.91416666666667
169,2015-03-18,0.7266666666666667,,0.7266666666666667
169,2015-03-19,8.299583333333333,,8.299583333333333
169,2015-03-20,6.66,,6.66
169,2015-03-21,2.94,,2.94
169,2015-03-22,34.81375,,34.81375
169,2015-03-23,43.833333333333336,,43.833333333333336
169,2015-03-24,54.252916666666664,,54.252916666666664
169,2015-03-25,34.43333333333333,,34.43333333333333
169,2015-03-26,12.799583333333333,,12.799583333333333
169,2015-03-27,40.354166666666664,,40.354166666666664
169,2015-03-28,89.34500000000001,,89.34500000000001
169,2015-03-29,103.14083333333333,,103.14083333333333
169,2015-03-30,25.340833333333332,,25.340833333333332
169,2015-03-31,52.685,,52.685
169,2015-04-01,116.70041666666667,,116.70041666666667
169,2015-04-02,103.44041666666668,,103.44041666666668
169,2015-04-03,84.74708333333334,,84.74708333333334
169,2015-04-04,107.95333333333333,,107.95333333333333
169,2015-04-05,24.0675,,24.0675
169,2015-04-06,115.27375,,115.27375
169,2015-04-07,29.158749999999998,,29.158749999999998
169,2015-04-08,19.546666666666667,,19.546666666666667
169,2015-04-09,33.700833333333335,,33.700833333333335
169,2015-04-10,37.760416666666664,,37.760416666666664
169,2015-04-11,37.76541666666667,,37.76541666666667
169,2015-04-12,147.02625,,147.02625
169,2015-04-13,127.72625,,127.72625
169,2015-04-14,101.53416666666668,,101.53416666666668
169,2015-04-15,149.82,,149.82
169,2015-04-16,127.21875,,127.21875
169,2015-04-17,38.65375,,38.65375
169,2015-04-18,146.17958333333334,,146.17958333333334
169,2015-04-19,137.8075,,137.8075
169,2015-04-20,114.815,,114.815
169,2015-04-21,88.75791666666667,,88.75791666666667
169,2015-04-22,44.802083333333336,,44.802083333333336
169,2015-04-23,21.333333333333332,,21.333333333333332
169,2015-04-24,49.598749999999995,,49.598749999999995
169,2015-04-25,149.20583333333335,,149.20583333333335
169,2015-04-26,74.78125,,74.78125
169,2015-04-27,52.28666666666667,,52.28666666666667
169,2015-04-28,127.02083333333333,,127.02083333333333
169,2015-04-29,149.96583333333334,,149.96583333333334
169,2015-04-30,125.78666666666668,,125.78666666666668
169,2015-05-01,65.3725,,65.3725
169,2015-05-02,140.61958333333334,,140.61958333333334
169,2015-05-03,143.16166666666666,,143.16166666666666